Time,TemperatureF,DewpointF,PressureIn,WindDirection,WindDirectionDegrees,WindSpeedMPH,WindSpeedGustMPH,Humidity,HourlyPrecipIn,Conditions,Clouds,dailyrainin,SoftwareType,DateUTC
2013-01-20 00:05:00,62.9,59.3,30.05,ENE,64,0.0,7.0,88,0.00,,,0.00,Wunderground v.1.15,2013-01-20 05:05:00,
2013-01-20 00:10:00,62.9,59.3,30.05,ENE,64,0.0,0.0,88,0.00,,,0.00,Wunderground v.1.15,2013-01-20 05:10:00,
2013-01-20 00:15:00,62.9,59.3,30.06,ENE,64,0.0,0.0,88,0.00,,,0.00,Wunderground v.1.15,2013-01-20 05:15:00,
2013-01-20 00:25:00,62.7,59.1,30.06,ENE,64,0.0,0.0,88,0.00,,,0.00,Wunderground v.1.15,2013-01-20 05:25:00,
2013-01-20 00:35:00,62.6,59.0,30.05,NE,37,2.0,4.0,88,0.00,,,0.00,Wunderground v.1.15,2013-01-20 05:35:00,
2013-01-20 00:45:00,62.6,59.3,30.04,NE,44,1.0,2.0,89,0.00,,,0.00,Wunderground v.1.15,2013-01-20 05:45:00,
2013-01-20 00:55:00,62.4,59.1,30.04,NE,44,0.0,0.0,89,0.00,,,0.00,Wunderground v.1.15,2013-01-20 05:55:00,
2013-01-20 01:05:00,62.4,59.1,30.04,ENE,68,0.0,0.0,89,0.00,,,0.00,Wunderground v.1.15,2013-01-20 06:05:00,
2013-01-20 01:10:00,62.4,59.1,30.04,NE,46,0.0,0.0,89,0.00,,,0.00,Wunderground v.1.15,2013-01-20 06:10:00,
2013-01-20 01:20:00,62.4,59.1,30.03,NNE,18,2.0,2.0,89,0.00,,,0.00,Wunderground v.1.15,2013-01-20 06:20:00,
2013-01-20 01:30:00,62.4,59.1,30.04,NNE,30,1.0,1.0,89,0.00,,,0.00,Wunderground v.1.15,2013-01-20 06:30:00,
2013-01-20 01:40:00,62.3,59.0,30.04,NNE,28,1.0,1.0,89,0.00,,,0.00,Wunderground v.1.15,2013-01-20 06:40:00,
2013-01-20 01:50:00,62.3,59.0,30.03,ENE,69,3.0,6.0,89,0.00,,,0.00,Wunderground v.1.15,2013-01-20 06:50:00,
2013-01-20 02:00:00,62.3,58.7,30.04,ENE,65,3.0,3.0,88,0.00,,,0.00,Wunderground v.1.15,2013-01-20 07:00:00,
2013-01-20 02:10:00,62.3,58.7,30.04,ENE,66,2.0,4.0,88,0.00,,,0.00,Wunderground v.1.15,2013-01-20 07:10:00,
2013-01-20 02:20:00,62.1,58.5,30.03,NE,41,1.0,1.0,88,0.00,,,0.00,Wunderground v.1.15,2013-01-20 07:20:00,
2013-01-20 02:30:00,62.1,58.5,30.04,NE,46,1.0,1.0,88,0.00,,,0.00,Wunderground v.1.15,2013-01-20 07:30:00,
2013-01-20 02:40:00,62.0,58.4,30.04,NE,45,0.0,0.0,88,0.00,,,0.00,Wunderground v.1.15,2013-01-20 07:40:00,
2013-01-20 02:50:00,61.8,58.2,30.04,ENE,58,0.0,0.0,88,0.00,,,0.00,Wunderground v.1.15,2013-01-20 07:50:00,
2013-01-20 03:00:00,61.6,58.0,30.04,ENE,58,0.0,0.0,88,0.00,,,0.00,Wunderground v.1.15,2013-01-20 08:00:00,
2013-01-20 03:10:00,61.5,57.9,30.04,NE,35,0.0,0.0,88,0.00,,,0.00,Wunderground v.1.15,2013-01-20 08:10:00,
2013-01-20 03:20:00,61.5,57.9,30.04,NE,35,0.0,0.0,88,0.00,,,0.00,Wunderground v.1.15,2013-01-20 08:20:00,
2013-01-20 03:30:00,61.5,57.9,30.03,NE,35,0.0,0.0,88,0.00,,,0.00,Wunderground v.1.15,2013-01-20 08:30:00,
2013-01-20 03:40:00,61.5,58.2,30.03,North,6,0.0,0.0,89,0.00,,,0.00,Wunderground v.1.15,2013-01-20 08:40:00,
2013-01-20 03:50:00,61.5,58.2,30.03,NE,36,1.0,1.0,89,0.00,,,0.00,Wunderground v.1.15,2013-01-20 08:50:00,
2013-01-20 04:00:00,61.3,58.0,30.03,ENE,60,1.0,2.0,89,0.00,,,0.00,Wunderground v.1.15,2013-01-20 09:00:00,
2013-01-20 04:10:00,61.3,58.0,30.03,NNE,17,0.0,4.0,89,0.00,,,0.00,Wunderground v.1.15,2013-01-20 09:10:00,
2013-01-20 04:20:00,61.3,58.0,30.03,NE,49,1.0,1.0,89,0.00,,,0.00,Wunderground v.1.15,2013-01-20 09:20:00,
2013-01-20 04:30:00,61.3,58.0,30.03,NNE,30,1.0,1.0,89,0.00,,,0.00,Wunderground v.1.15,2013-01-20 09:30:00,
2013-01-20 04:40:00,61.3,58.0,30.03,NNE,27,1.0,1.0,89,0.00,,,0.00,Wunderground v.1.15,2013-01-20 09:40:00,
2013-01-20 04:50:00,61.3,58.0,30.03,ENE,62,1.0,1.0,89,0.00,,,0.00,Wunderground v.1.15,2013-01-20 09:50:00,
2013-01-20 05:00:00,61.2,57.9,30.02,ENE,61,1.0,1.0,89,0.00,,,0.00,Wunderground v.1.15,2013-01-20 10:00:00,
2013-01-20 05:10:00,61.2,57.9,30.02,ENE,58,1.0,1.0,89,0.00,,,0.00,Wunderground v.1.15,2013-01-20 10:10:00,
2013-01-20 05:20:00,61.2,58.2,30.03,NE,39,1.0,1.0,90,0.00,,,0.00,Wunderground v.1.15,2013-01-20 10:20:00,
2013-01-20 05:30:00,61.3,58.3,30.04,NNE,30,0.0,0.0,90,0.00,,,0.00,Wunderground v.1.15,2013-01-20 10:30:00,
2013-01-20 05:40:00,61.2,58.2,30.04,NNE,32,1.0,1.0,90,0.00,,,0.00,Wunderground v.1.15,2013-01-20 10:40:00,
2013-01-20 05:50:00,61.0,58.0,30.03,ENE,73,2.0,2.0,90,0.00,,,0.00,Wunderground v.1.15,2013-01-20 10:50:00,
2013-01-20 06:00:00,61.0,58.0,30.03,North,8,3.0,4.0,90,0.00,,,0.00,Wunderground v.1.15,2013-01-20 11:00:00,
2013-01-20 06:10:00,61.0,58.0,30.03,NE,46,1.0,10.0,90,0.00,,,0.00,Wunderground v.1.15,2013-01-20 11:10:00,
2013-01-20 06:15:00,61.0,58.0,30.04,NNE,23,2.0,10.0,90,0.00,,,0.00,Wunderground v.1.15,2013-01-20 11:15:00,
2013-01-20 06:25:00,61.0,58.4,30.04,NNE,28,1.0,3.0,91,0.00,,,0.00,Wunderground v.1.15,2013-01-20 11:25:00,
2013-01-20 06:35:00,61.0,58.4,30.05,NNE,29,0.0,0.0,91,0.00,,,0.00,Wunderground v.1.15,2013-01-20 11:35:00,
2013-01-20 06:45:00,61.0,58.4,30.05,NNE,28,0.0,0.0,91,0.00,,,0.00,Wunderground v.1.15,2013-01-20 11:45:00,
2013-01-20 06:55:00,61.0,58.4,30.05,NNE,18,0.0,0.0,91,0.00,,,0.00,Wunderground v.1.15,2013-01-20 11:55:00,
2013-01-20 07:00:00,60.9,58.3,30.05,NNE,21,0.0,0.0,91,0.00,,,0.00,Wunderground v.1.15,2013-01-20 12:00:00,
2013-01-20 07:10:00,60.9,58.3,30.05,NE,41,1.0,1.0,91,0.00,,,0.00,Wunderground v.1.15,2013-01-20 12:10:00,
2013-01-20 07:15:00,60.9,58.3,30.06,ENE,60,1.0,14.0,91,0.00,,,0.00,Wunderground v.1.15,2013-01-20 12:15:00,
2013-01-20 07:25:00,60.9,58.3,30.06,ENE,60,0.0,14.0,91,0.00,,,0.00,Wunderground v.1.15,2013-01-20 12:25:00,
2013-01-20 07:35:00,60.9,58.3,30.06,ENE,60,0.0,14.0,91,0.00,,,0.00,Wunderground v.1.15,2013-01-20 12:35:00,
2013-01-20 07:45:00,60.9,58.3,30.07,ENE,60,0.0,14.0,91,0.00,,,0.00,Wunderground v.1.15,2013-01-20 12:45:00,
2013-01-20 07:55:00,61.0,58.4,30.07,North,0,1.0,14.0,91,0.00,,,0.00,Wunderground v.1.15,2013-01-20 12:55:00,
2013-01-20 08:05:00,61.2,58.6,30.07,NNE,23,1.0,3.0,91,0.00,,,0.00,Wunderground v.1.15,2013-01-20 13:05:00,
2013-01-20 08:15:00,61.3,58.7,30.07,North,11,3.0,14.0,91,0.00,,,0.00,Wunderground v.1.15,2013-01-20 13:15:00,
2013-01-20 08:25:00,61.5,58.8,30.07,NNE,33,5.0,14.0,91,0.00,,,0.00,Wunderground v.1.15,2013-01-20 13:25:00,
2013-01-20 08:35:00,61.6,58.6,30.08,North,11,2.0,4.0,90,0.00,,,0.00,Wunderground v.1.15,2013-01-20 13:35:00,
2013-01-20 08:40:00,61.6,58.6,30.08,NNE,30,3.0,3.0,90,0.00,,,0.00,Wunderground v.1.15,2013-01-20 13:40:00,
2013-01-20 08:50:00,61.8,58.8,30.08,NE,46,2.0,2.0,90,0.00,,,0.00,Wunderground v.1.15,2013-01-20 13:50:00,
2013-01-20 09:00:00,62.1,58.8,30.08,NNE,26,1.0,1.0,89,0.00,,,0.00,Wunderground v.1.15,2013-01-20 14:00:00,
2013-01-20 09:10:00,62.3,59.0,30.08,NE,46,2.0,2.0,89,0.00,,,0.00,Wunderground v.1.15,2013-01-20 14:10:00,
2013-01-20 09:15:00,62.6,59.3,30.08,ENE,73,1.0,2.0,89,0.00,,,0.00,Wunderground v.1.15,2013-01-20 14:15:00,
2013-01-20 09:20:00,62.9,59.3,30.08,North,11,2.0,8.0,88,0.00,,,0.00,Wunderground v.1.15,2013-01-20 14:20:00,
2013-01-20 09:30:00,63.7,59.8,30.09,NNE,32,3.0,5.0,87,0.00,,,0.00,Wunderground v.1.15,2013-01-20 14:30:00,
2013-01-20 09:40:00,64.3,59.7,30.09,NNE,28,3.0,3.0,85,0.00,,,0.00,Wunderground v.1.15,2013-01-20 14:40:00,
2013-01-20 09:50:00,65.0,60.0,30.09,ENE,68,2.0,2.0,84,0.00,,,0.00,Wunderground v.1.15,2013-01-20 14:50:00,
2013-01-20 10:00:00,65.3,60.0,30.09,NNE,25,5.0,9.0,83,0.00,,,0.00,Wunderground v.1.15,2013-01-20 15:00:00,
2013-01-20 10:05:00,65.8,60.5,30.09,NE,34,5.0,15.0,83,0.00,,,0.00,Wunderground v.1.15,2013-01-20 15:05:00,
2013-01-20 10:10:00,66.3,60.3,30.09,NNE,23,6.0,6.0,81,0.00,,,0.00,Wunderground v.1.15,2013-01-20 15:10:00,
2013-01-20 10:20:00,66.8,60.8,30.09,NE,52,4.0,10.0,81,0.00,,,0.00,Wunderground v.1.15,2013-01-20 15:20:00,
2013-01-20 10:30:00,67.1,60.7,30.09,NE,39,3.0,10.0,80,0.00,,,0.00,Wunderground v.1.15,2013-01-20 15:30:00,
2013-01-20 10:40:00,67.4,61.0,30.09,ENE,78,4.0,4.0,80,0.00,,,0.00,Wunderground v.1.15,2013-01-20 15:40:00,
2013-01-20 10:50:00,67.8,61.0,30.08,NE,55,4.0,4.0,79,0.00,,,0.00,Wunderground v.1.15,2013-01-20 15:50:00,
2013-01-20 11:00:00,68.4,61.6,30.08,NNE,25,1.0,12.0,79,0.00,,,0.00,Wunderground v.1.15,2013-01-20 16:00:00,
2013-01-20 11:10:00,68.9,61.4,30.08,ENE,58,6.0,6.0,77,0.00,,,0.00,Wunderground v.1.15,2013-01-20 16:10:00,
2013-01-20 11:20:00,69.4,61.9,30.06,NE,35,6.0,6.0,77,0.00,,,0.00,Wunderground v.1.15,2013-01-20 16:20:00,
2013-01-20 11:30:00,70.9,61.8,30.06,ENE,65,7.0,10.0,73,0.00,,,0.00,Wunderground v.1.15,2013-01-20 16:30:00,
2013-01-20 11:40:00,71.1,62.0,30.06,NE,49,8.0,8.0,73,0.00,,,0.00,Wunderground v.1.15,2013-01-20 16:40:00,
2013-01-20 11:50:00,71.3,62.2,30.06,NE,41,7.0,7.0,73,0.00,,,0.00,Wunderground v.1.15,2013-01-20 16:50:00,
2013-01-20 12:00:00,70.9,61.8,30.05,NNE,17,6.0,10.0,73,0.00,,,0.00,Wunderground v.1.15,2013-01-20 17:00:00,
2013-01-20 12:05:00,70.6,61.5,30.05,NE,42,6.0,10.0,73,0.00,,,0.00,Wunderground v.1.15,2013-01-20 17:05:00,
2013-01-20 12:15:00,70.8,62.1,30.04,NE,50,5.0,11.0,74,0.00,,,0.00,Wunderground v.1.15,2013-01-20 17:15:00,
2013-01-20 12:25:00,70.8,61.7,30.04,North,0,6.0,7.0,73,0.00,,,0.00,Wunderground v.1.15,2013-01-20 17:25:00,
2013-01-20 12:35:00,71.3,62.2,30.03,NE,56,6.0,14.0,73,0.00,,,0.00,Wunderground v.1.15,2013-01-20 17:35:00,
2013-01-20 12:45:00,71.6,62.5,30.02,NE,42,5.0,6.0,73,0.00,,,0.00,Wunderground v.1.15,2013-01-20 17:45:00,
2013-01-20 12:55:00,71.6,62.1,30.02,NNE,19,4.0,5.0,72,0.00,,,0.00,Wunderground v.1.15,2013-01-20 17:55:00,
2013-01-20 13:05:00,71.6,62.5,30.01,North,11,3.0,17.0,73,0.00,,,0.00,Wunderground v.1.15,2013-01-20 18:05:00,
2013-01-20 13:15:00,71.6,62.1,30.00,NNE,23,3.0,7.0,72,0.00,,,0.00,Wunderground v.1.15,2013-01-20 18:15:00,
2013-01-20 13:25:00,71.5,62.4,30.00,NE,35,3.0,17.0,73,0.00,,,0.00,Wunderground v.1.15,2013-01-20 18:25:00,
2013-01-20 13:35:00,72.3,62.8,30.00,North,11,2.0,8.0,72,0.00,,,0.00,Wunderground v.1.15,2013-01-20 18:35:00,
2013-01-20 13:45:00,73.2,62.8,29.99,ENE,60,3.0,17.0,70,0.00,,,0.00,Wunderground v.1.15,2013-01-20 18:45:00,
2013-01-20 13:55:00,73.2,62.4,29.99,ESE,105,6.0,6.0,69,0.00,,,0.00,Wunderground v.1.15,2013-01-20 18:55:00,
2013-01-20 14:05:00,73.3,62.5,29.97,NNE,29,3.0,17.0,69,0.00,,,0.00,Wunderground v.1.15,2013-01-20 19:05:00,
2013-01-20 14:15:00,73.7,62.9,29.97,North,349,5.0,17.0,69,0.00,,,0.00,Wunderground v.1.15,2013-01-20 19:15:00,
2013-01-20 14:25:00,73.3,62.5,29.97,NE,34,4.0,17.0,69,0.00,,,0.00,Wunderground v.1.15,2013-01-20 19:25:00,
2013-01-20 14:30:00,73.3,62.5,29.97,NE,39,5.0,17.0,69,0.00,,,0.00,Wunderground v.1.15,2013-01-20 19:30:00,
2013-01-20 14:35:00,73.5,62.7,29.97,NE,35,3.0,17.0,69,0.00,,,0.00,Wunderground v.1.15,2013-01-20 19:35:00,
2013-01-20 14:40:00,73.5,62.3,29.97,NE,45,1.0,1.0,68,0.00,,,0.00,Wunderground v.1.15,2013-01-20 19:40:00,
2013-01-20 14:50:00,72.7,62.8,29.97,West,276,2.0,2.0,71,0.00,,,0.00,Wunderground v.1.15,2013-01-20 19:50:00,
2013-01-20 15:00:00,71.8,62.3,29.96,NW,317,6.0,17.0,72,0.00,,,0.00,Wunderground v.1.15,2013-01-20 20:00:00,
2013-01-20 15:10:00,72.0,62.5,29.96,NNW,338,12.0,15.0,72,0.00,,,0.00,Wunderground v.1.15,2013-01-20 20:10:00,
2013-01-20 15:20:00,72.5,62.6,29.95,NE,56,5.0,5.0,71,0.00,,,0.00,Wunderground v.1.15,2013-01-20 20:20:00,
2013-01-20 15:25:00,72.7,62.8,29.95,NW,310,2.0,5.0,71,0.00,,,0.00,Wunderground v.1.15,2013-01-20 20:25:00,
2013-01-20 15:35:00,72.7,62.8,29.95,NW,326,5.0,6.0,71,0.00,,,0.00,Wunderground v.1.15,2013-01-20 20:35:00,
2013-01-20 15:45:00,72.5,62.6,29.95,North,355,4.0,4.0,71,0.00,,,0.00,Wunderground v.1.15,2013-01-20 20:45:00,
2013-01-20 15:55:00,73.2,62.8,29.95,NW,326,4.0,4.0,70,0.00,,,0.00,Wunderground v.1.15,2013-01-20 20:55:00,
2013-01-20 16:00:00,73.9,63.1,29.95,NW,311,5.0,7.0,69,0.00,,,0.00,Wunderground v.1.15,2013-01-20 21:00:00,
2013-01-20 16:10:00,74.0,62.8,29.95,North,1,3.0,3.0,68,0.00,,,0.00,Wunderground v.1.15,2013-01-20 21:10:00,
2013-01-20 16:20:00,74.2,62.5,29.96,NNW,329,3.0,3.0,67,0.00,,,0.00,Wunderground v.1.15,2013-01-20 21:20:00,
2013-01-20 16:30:00,73.9,62.7,29.96,NNW,345,1.0,1.0,68,0.00,,,0.00,Wunderground v.1.15,2013-01-20 21:30:00,
2013-01-20 16:40:00,72.5,62.2,29.96,NW,321,8.0,8.0,70,0.00,,,0.00,Wunderground v.1.15,2013-01-20 21:40:00,
2013-01-20 16:50:00,71.8,62.7,29.96,West,280,12.0,12.0,73,0.00,,,0.00,Wunderground v.1.15,2013-01-20 21:50:00,
2013-01-20 17:00:00,70.9,63.0,29.97,WNW,302,11.0,16.0,76,0.00,,,0.00,Wunderground v.1.15,2013-01-20 22:00:00,
2013-01-20 17:10:00,69.9,63.1,29.97,West,277,11.0,11.0,79,0.00,,,0.00,Wunderground v.1.15,2013-01-20 22:10:00,
2013-01-20 17:20:00,69.9,62.7,29.97,West,274,8.0,16.0,78,0.00,,,0.00,Wunderground v.1.15,2013-01-20 22:20:00,
2013-01-20 17:30:00,69.1,62.3,29.97,West,264,10.0,10.0,79,0.00,,,0.00,Wunderground v.1.15,2013-01-20 22:30:00,
2013-01-20 17:40:00,68.8,62.4,29.97,WNW,287,6.0,16.0,80,0.00,,,0.00,Wunderground v.1.15,2013-01-20 22:40:00,
2013-01-20 17:50:00,68.6,62.5,29.98,WNW,285,5.0,5.0,81,0.00,,,0.00,Wunderground v.1.15,2013-01-20 22:50:00,
2013-01-20 18:00:00,68.3,62.6,29.98,WNW,290,5.0,5.0,82,0.00,,,0.00,Wunderground v.1.15,2013-01-20 23:00:00,
2013-01-20 18:10:00,67.8,62.4,29.98,WNW,292,2.0,2.0,83,0.00,,,0.00,Wunderground v.1.15,2013-01-20 23:10:00,
2013-01-20 18:20:00,67.3,62.3,29.98,WNW,285,1.0,1.0,84,0.00,,,0.00,Wunderground v.1.15,2013-01-20 23:20:00,
2013-01-20 18:30:00,67.1,62.4,29.98,WNW,285,0.0,0.0,85,0.00,,,0.00,Wunderground v.1.15,2013-01-20 23:30:00,
2013-01-20 18:40:00,66.9,62.2,29.98,WNW,285,0.0,0.0,85,0.00,,,0.00,Wunderground v.1.15,2013-01-20 23:40:00,
2013-01-20 18:50:00,66.9,62.2,29.99,WNW,285,0.0,0.0,85,0.00,,,0.00,Wunderground v.1.15,2013-01-20 23:50:00,
2013-01-20 19:00:00,66.6,61.9,29.99,WNW,285,0.0,0.0,85,0.00,,,0.00,Wunderground v.1.15,2013-01-21 00:00:00,
2013-01-20 19:10:00,66.1,61.5,29.99,WNW,285,0.0,10.0,85,0.00,,,0.00,Wunderground v.1.15,2013-01-21 00:10:00,
2013-01-20 19:20:00,66.0,61.7,29.99,WNW,285,0.0,10.0,86,0.00,,,0.00,Wunderground v.1.15,2013-01-21 00:20:00,
2013-01-20 19:30:00,65.5,61.5,29.99,WNW,285,0.0,10.0,87,0.00,,,0.00,Wunderground v.1.15,2013-01-21 00:30:00,
2013-01-20 19:40:00,65.3,61.7,29.99,WNW,285,0.0,10.0,88,0.00,,,0.00,Wunderground v.1.15,2013-01-21 00:40:00,
2013-01-20 19:50:00,65.2,61.6,29.99,WNW,285,0.0,10.0,88,0.00,,,0.00,Wunderground v.1.15,2013-01-21 00:50:00,
2013-01-20 20:00:00,64.8,61.2,29.99,WNW,285,0.0,10.0,88,0.00,,,0.00,Wunderground v.1.15,2013-01-21 01:00:00,
2013-01-20 20:10:00,64.8,61.2,29.99,WNW,285,0.0,10.0,88,0.00,,,0.00,Wunderground v.1.15,2013-01-21 01:10:00,
2013-01-20 20:20:00,64.8,61.2,29.99,WNW,285,0.0,10.0,88,0.00,,,0.00,Wunderground v.1.15,2013-01-21 01:20:00,
2013-01-20 20:30:00,64.7,61.4,30.00,WNW,285,0.0,10.0,89,0.00,,,0.00,Wunderground v.1.15,2013-01-21 01:30:00,
2013-01-20 20:35:00,64.8,61.5,30.00,WNW,285,0.0,10.0,89,0.00,,,0.00,Wunderground v.1.15,2013-01-21 01:35:00,
2013-01-20 20:40:00,64.8,61.5,30.00,WNW,285,0.0,10.0,89,0.00,,,0.00,Wunderground v.1.15,2013-01-21 01:40:00,
2013-01-20 20:50:00,65.0,61.7,30.00,WNW,285,0.0,10.0,89,0.00,,,0.00,Wunderground v.1.15,2013-01-21 01:50:00,
2013-01-20 21:00:00,65.2,61.9,30.00,WNW,285,0.0,10.0,89,0.00,,,0.00,Wunderground v.1.15,2013-01-21 02:00:00,
2013-01-20 21:10:00,65.3,62.0,30.00,WNW,285,0.0,0.0,89,0.00,,,0.00,Wunderground v.1.15,2013-01-21 02:10:00,
2013-01-20 21:20:00,65.6,61.9,30.00,NE,41,0.0,2.0,88,0.00,,,0.00,Wunderground v.1.15,2013-01-21 02:20:00,
2013-01-20 21:25:00,65.8,61.8,30.00,NE,51,1.0,2.0,87,0.00,,,0.00,Wunderground v.1.15,2013-01-21 02:25:00,
2013-01-20 21:35:00,66.1,61.5,30.01,ENE,63,2.0,6.0,85,0.00,,,0.00,Wunderground v.1.15,2013-01-21 02:35:00,
2013-01-20 21:45:00,66.3,61.3,30.01,ENE,63,1.0,2.0,84,0.00,,,0.00,Wunderground v.1.15,2013-01-21 02:45:00,
2013-01-20 21:55:00,66.3,61.3,30.01,NE,56,1.0,1.0,84,0.00,,,0.00,Wunderground v.1.15,2013-01-21 02:55:00,
2013-01-20 22:00:00,66.3,61.3,30.01,ENE,65,1.0,1.0,84,0.00,,,0.00,Wunderground v.1.15,2013-01-21 03:00:00,
2013-01-20 22:05:00,66.3,61.3,30.01,ENE,58,1.0,6.0,84,0.00,,,0.00,Wunderground v.1.15,2013-01-21 03:05:00,
2013-01-20 22:15:00,66.3,61.3,30.01,ENE,61,1.0,4.0,84,0.00,,,0.00,Wunderground v.1.15,2013-01-21 03:15:00,
2013-01-20 22:25:00,66.1,61.1,30.01,NE,55,1.0,1.0,84,0.00,,,0.00,Wunderground v.1.15,2013-01-21 03:25:00,
2013-01-20 22:35:00,66.0,60.7,30.02,NE,46,4.0,4.0,83,0.00,,,0.00,Wunderground v.1.15,2013-01-21 03:35:00,
2013-01-20 22:40:00,66.0,60.3,30.02,ENE,65,3.0,4.0,82,0.00,,,0.00,Wunderground v.1.15,2013-01-21 03:40:00,
2013-01-20 22:50:00,66.0,60.3,30.02,East,90,1.0,1.0,82,0.00,,,0.00,Wunderground v.1.15,2013-01-21 03:50:00,
2013-01-20 23:00:00,65.8,60.2,30.02,ENE,74,2.0,2.0,82,0.00,,,0.00,Wunderground v.1.15,2013-01-21 04:00:00,
2013-01-20 23:10:00,65.8,60.2,30.02,East,89,3.0,3.0,82,0.00,,,0.00,Wunderground v.1.15,2013-01-21 04:10:00,
2013-01-20 23:20:00,65.8,60.2,30.02,ENE,63,2.0,3.0,82,0.00,,,0.00,Wunderground v.1.15,2013-01-21 04:20:00,
2013-01-20 23:30:00,65.6,60.0,30.02,NE,41,3.0,3.0,82,0.00,,,0.00,Wunderground v.1.15,2013-01-21 04:30:00,
2013-01-20 23:35:00,65.6,60.0,30.02,ENE,63,1.0,3.0,82,0.00,,,0.00,Wunderground v.1.15,2013-01-21 04:35:00,
2013-01-20 23:45:00,65.5,59.9,30.01,East,81,1.0,1.0,82,0.00,,,0.00,Wunderground v.1.15,2013-01-21 04:45:00,
2013-01-20 23:55:00,65.3,59.7,30.01,East,95,2.0,5.0,82,0.00,,,0.00,Wunderground v.1.15,2013-01-21 04:55:00,